Location: ???????
(55.4362°N, 38.1183°E)
Time: 14:12:55
(UTC+00:00)

Oscar 11 - Pass Details

Date: 03 December 2021
Orbit: 611 x 625 km, 97.6° (Epoch: 25 January)

Event Time Altitude Azimuth Distance (km) Brightness Sun altitude
Rises 15:38:48 0° 227° (SW) 2,903 11.4 -21.1°
Reaches altitude 10° 15:43:11 10° 269° (W) 2,007 10.8 -21.7°
Maximum altitude 15:43:53 10° 278° (W) 1,987 10.7 -21.8°
Drops below altitude 10° 15:44:35 10° 288° (WNW) 2,010 10.6 -21.9°
Sets 15:49:00 0° 330° (NNW) 2,926 10.8 -22.5°
